This demonstration page uses our WeatherBlox Daily Observations layout. Learn more.

Left ArrowRight Arrow

Hourly Observations for June 18, 2016

Temp ( °F °C ) Dew Point ( °F °C ) Humidity (%) Winds ( mph kmh ) Pressure ( in mb ) Visibility ( mi km ) Precip ( " mm )
12:51 am 00:51 Mostly Cloudy 84 29 66 19 55 55 W 9 15 30 1016 10 16.0934 0 0
12:54 am 00:54 Cloudy 84 28.9 67 19.4 57 57 W 15 24 30.02 1017 10 16.0934 0 0
1:11 am 01:11 Cloudy with Nearby Thunderstorms 82 27.8 60 15.6 47 47 NW 14 22 30 1016 10 16.0934 0 0
1:19 am 01:19 Windy with Storms Likely 76 24.4 65 18.3 69 69 NNW 29 46 30.03 1017 10 16.0934 0 0.0254
1:34 am 01:34 Cloudy with Nearby Thunderstorms 71 21.7 67 19.4 87 87 N 20 31 30.06 1018 10 16.0934 0 0.0254
1:49 am 01:49 Cloudy with Heavy Thunderstorms 70 21 66 19 88 88 NNW 8 13 30.09 1019 2 3.21868 0 0
1:54 am 01:54 Cloudy with Thunderstorms 70 21.1 68 20 93 93 N 6 9 30.09 1019 2.5 4.02335 0.14 3.556
2:01 am 02:01 Cloudy with Thunderstorms 70 21.1 68 20 93 93 N 12 19 30.09 1019 4 6.43736 0.02 0.508
2:52 am 02:52 Cloudy with Light Rain 68 20 66 19 94 94 NE 20 31 30.12 1020 8 12.87472 0 0
2:53 am 02:53 Cloudy with Light Rain 68 20 66 19 94 94 NE 18 30 30.12 1020 8 12.87472 0 0
3:19 am 03:19 Cloudy with Nearby Thunderstorms 69 20.6 68 20 96 96 ENE 15 24 30.15 1021 10 16.0934 0 0.0254
3:26 am 03:26 Cloudy with Nearby Thunderstorms 70 21 68 20 94 94 VRB 3 6 30.18 1022 10 16.0934 0 0
3:37 am 03:37 Cloudy with Nearby Thunderstorms 70 21 68 20 94 94 VRB 3 6 30.18 1022 10 16.0934 0 0
3:45 am 03:45 Cloudy with Heavy Thunderstorms 69 20.6 68 20 96 96 WNW 10 17 30.18 1022 2.5 4.02335 0.04 1.016
3:54 am 03:54 Cloudy with Thunderstorms 69 20.6 68 20 96 96 NNW 13 20 30.16 1021 3 4.82802 0.09 2.286
4:00 am 04:00 Cloudy with Rain 70 21 68 20 94 94 NNW 18 30 30.18 1022 5 8.0467 0 0
4:07 am 04:07 Cloudy with Light Rain 70 21 68 20 94 94 N 16 26 30.18 1022 5 8.0467 0 0
4:36 am 04:36 Cloudy with Rain 70 21 68 20 94 94 NNE 12 19 30.18 1022 6 9.65604 0 0
4:54 am 04:54 Cloudy with Rain 69 20.6 68 20 96 96 NE 13 20 30.15 1021 5 8.0467 0.13 3.302
5:54 am 05:54 Partly Cloudy with Light Rain 69 20.6 68 20 96 96 NNE 12 19 30.08 1019 10 16.0934 0.06 1.524
6:54 am 06:54 Partly Cloudy with Light Rain 70 21.1 68 20 93 93 SE 10 17 30.11 1020 8 12.87472 0 0.0254
7:54 am 07:54 Sunny 73 22.8 68 20 84 84 SSE 17 28 30.05 1018 10 16.0934 0 0.0254
8:54 am 08:54 Sunny 75 23.9 67 19.4 76 76 SE 10 17 30.06 1018 10 16.0934 0 0
9:54 am 09:54 Sunny 78 25.6 69 20.6 74 74 SSE 7 11 30.09 1019 10 16.0934 0 0
10:54 am 10:54 Sunny 82 27.8 70 21.1 67 67 SSE 13 20 30.1 1019 10 16.0934 0 0
11:54 am 11:54 Sunny 84 28.9 68 20 59 59 SE 12 19 30.14 1021 10 16.0934 0 0
12:54 pm 12:54 Partly Cloudy 85 29.4 68 20 57 57 VRB 6 9 30.14 1021 10 16.0934 0 0
1:54 pm 13:54 Partly Cloudy 87 30.6 69 20.6 55 55 SSW 6 9 30.14 1021 10 16.0934 0 0
2:54 pm 14:54 Partly Cloudy 87 30.6 68 20 53 53 undefined N/A 30.14 1021 10 16.0934 0 0
3:54 pm 15:54 Partly Cloudy 88 31.1 68 20 52 52 SSE 3 6 30.12 1020 10 16.0934 0 0
4:54 pm 16:54 Sunny 87 30.6 68 20 53 53 ESE 9 15 30.11 1020 10 16.0934 0 0
5:54 pm 17:54 Sunny 88 31.1 66 18.9 48 48 E 10 17 30.1 1019 10 16.0934 0 0
6:54 pm 18:54 Sunny 87 30.6 67 19.4 51 51 E 8 13 30.1 1019 10 16.0934 0 0
7:54 pm 19:54 Sunny 85 29.4 65 18.3 51 51 SSE 12 19 30.1 1019 10 16.0934 0 0
8:54 pm 20:54 Sunny 84 28.9 66 18.9 55 55 SE 9 15 30.1 1019 10 16.0934 0 0
9:54 pm 21:54 Clear 82 27.8 66 18.9 58 58 SE 8 13 30.11 1020 10 16.0934 0 0
10:54 pm 22:54 Clear 81 27.2 66 18.9 61 61 SSE 9 15 30.13 1020 10 16.0934 0 0
11:54 pm 23:54 Clear 78 25.6 66 18.9 67 67 SSE 9 15 30.13 1020 10 16.0934 0 0

Powered by AerisWeather